Emmonak, AK

1:45 AM AKDT on June 25, 2017 (GMT -0800)
Emmonak

Weather History for PAEM - October, 2013

Change the Weather History Date:

Thursday, October 17, 2013

  Actual Average Record
Temperature  
Mean Temperature 37 °F -  
Max Temperature 42 °F 31 °F 44 °F (2006)
Min Temperature 32 °F 23 °F 17 °F (2008)
Degree Days  
Heating Degree Days 28    
Moisture  
Dew Point 32 °F    
Average Humidity 79    
Maximum Humidity 87    
Minimum Humidity 65    
Precipitation  
Precipitation 0.03 in - - ()
Sea Level Pressure  
Sea Level Pressure 29.56 in    
Wind  
Wind Speed 10 mph (SSW)    
Max Wind Speed 14 mph    
Max Gust Speed 18 mph    
Visibility 9 miles    
Events      
Averages and records for this station are not official NWS values.
T = Trace of Precipitation, MM = Missing Value Source: NWS Daily Summary

Daily Weather History Graph

Daily Weather History Graph

Search for Another Location

Airport or City:

Trip Planner

Search our weather history database for the weather conditions in past years. The results will help you decide how hot, cold, wet, or windy it might be!

Date:

Astronomy

Oct. 17, 2013 Rise Set
Actual Time 9:51 AM AKDT 7:33 PM AKDT
Civil Twilight 9:04 AM AKDT 8:20 PM AKDT
Nautical Twilight 8:11 AM AKDT 9:12 PM AKDT
Astronomical Twilight 7:18 AM AKDT 10:05 PM AKDT
Moon 7:01 PM AKDT (10/17) 8:22 AM AKDT (10/17)
Length of Visible Light 11h 15m
Length of Day
9h 42m
Waxing Gibbous, 98% of the Moon is Illuminated
Oct 17
Waxing Gibbous
Oct 18
Full
Oct 26
Last Quarter
Nov 3
New
Nov 9
First Quarter

Hourly Weather History & Observations

Time (AKDT) Temp. Windchill Dew Point Humidity Pressure Visibility Wind Dir Wind Speed Gust Speed Precip Events Conditions
12:16 AM 42.8 °F 36.2 °F 37.4 °F 81% 29.60 in 10.0 mi SSE 12.7 mph - N/A   Overcast
12:36 AM 42.8 °F 35.8 °F 37.4 °F 81% 29.61 in 10.0 mi SSE 13.8 mph - N/A   Overcast
12:56 AM 42.8 °F 36.6 °F 37.4 °F 81% 29.60 in 10.0 mi SSE 11.5 mph - N/A   Overcast
1:16 AM 42.8 °F 37.0 °F 37.4 °F 81% 29.60 in 10.0 mi SSE 10.4 mph - N/A   Overcast
1:36 AM 42.8 °F 36.6 °F 37.4 °F 81% 29.60 in 10.0 mi SSE 11.5 mph - N/A   Overcast
1:56 AM 42.8 °F 36.2 °F 37.4 °F 81% 29.60 in 10.0 mi SSE 12.7 mph - N/A   Overcast
2:16 AM 42.8 °F 36.2 °F 37.4 °F 81% 29.59 in 10.0 mi SSE 12.7 mph - N/A   Overcast
2:36 AM 42.8 °F 36.2 °F 37.4 °F 81% 29.59 in 10.0 mi SSE 12.7 mph - N/A   Overcast
2:56 AM 42.8 °F 35.8 °F 37.4 °F 81% 29.59 in 10.0 mi SSE 13.8 mph - N/A   Overcast
3:16 AM 42.8 °F 35.8 °F 37.4 °F 81% 29.59 in 10.0 mi SSE 13.8 mph - N/A   Mostly Cloudy
3:36 AM 42.8 °F 36.2 °F 37.4 °F 81% 29.59 in 10.0 mi SSE 12.7 mph - N/A   Overcast
3:56 AM 42.8 °F 36.6 °F 37.4 °F 81% 29.58 in 10.0 mi SSE 11.5 mph - N/A   Overcast
4:16 AM 42.8 °F 36.6 °F 37.4 °F 81% 29.59 in 10.0 mi SSE 11.5 mph - N/A   Overcast
4:36 AM 42.8 °F 37.0 °F 37.4 °F 81% 29.58 in 9.0 mi SSE 10.4 mph 16.1 mph N/A   Overcast
4:56 AM 41.0 °F 33.5 °F 37.4 °F 87% 29.57 in 5.0 mi SSE 13.8 mph - 0.01 in   Overcast
5:16 AM 41.0 °F 34.7 °F 37.4 °F 87% 29.58 in 7.0 mi South 10.4 mph - N/A   Overcast
5:36 AM 39.2 °F 33.0 °F 35.6 °F 87% 29.58 in 5.0 mi SW 9.2 mph - 0.02 in   Overcast
5:56 AM 39.2 °F 34.2 °F 35.6 °F 87% 29.58 in 2.5 mi SW 6.9 mph - 0.02 in   Overcast
6:16 AM 39.2 °F 34.2 °F 35.6 °F 87% 29.58 in 2.5 mi SW 6.9 mph - N/A   Overcast
6:36 AM 39.2 °F 33.6 °F 35.6 °F 87% 29.58 in 3.0 mi SW 8.1 mph - N/A   Mostly Cloudy
6:56 AM 39.2 °F 33.6 °F 35.6 °F 87% 29.58 in 10.0 mi SSW 8.1 mph - N/A   Mostly Cloudy
7:16 AM 39.2 °F 33.6 °F 33.8 °F 81% 29.58 in 4.0 mi SW 8.1 mph - N/A   Overcast
7:36 AM 37.4 °F 30.8 °F 33.8 °F 87% 29.58 in 2.5 mi SW 9.2 mph - N/A   Overcast
7:56 AM 37.4 °F 31.4 °F 33.8 °F 87% 29.57 in 9.0 mi SSW 8.1 mph - N/A   Overcast
8:16 AM 37.4 °F 30.8 °F 33.8 °F 87% 29.57 in 7.0 mi SSW 9.2 mph - N/A   Overcast
8:36 AM 37.4 °F 30.8 °F 33.8 °F 87% 29.57 in 9.0 mi SSW 9.2 mph - N/A   Overcast
8:56 AM 37.4 °F 31.4 °F 33.8 °F 87% 29.57 in 10.0 mi SW 8.1 mph - N/A   Overcast
9:16 AM 37.4 °F 32.1 °F 33.8 °F 87% 29.57 in 10.0 mi SW 6.9 mph - N/A   Overcast
9:36 AM 37.4 °F 31.4 °F 33.8 °F 87% 29.57 in 10.0 mi SSW 8.1 mph - N/A   Overcast
9:56 AM 37.4 °F 31.4 °F 32.0 °F 81% 29.56 in 10.0 mi SSW 8.1 mph - N/A   Overcast
10:16 AM 37.4 °F 31.4 °F 32.0 °F 81% 29.57 in 10.0 mi SSW 8.1 mph - N/A   Overcast
10:36 AM 37.4 °F 30.8 °F 32.0 °F 81% 29.57 in 10.0 mi SSW 9.2 mph - N/A   Overcast
10:56 AM 37.4 °F 31.4 °F 32.0 °F 81% 29.57 in 10.0 mi SSW 8.1 mph - N/A   Overcast
11:16 AM 37.4 °F 30.3 °F 32.0 °F 81% 29.58 in 10.0 mi SSW 10.4 mph - N/A   Overcast
11:36 AM 37.4 °F 31.4 °F 32.0 °F 81% 29.58 in 10.0 mi SSW 8.1 mph - N/A   Overcast
11:56 AM 37.4 °F 31.4 °F 30.2 °F 75% 29.58 in 10.0 mi SSW 8.1 mph - N/A   Overcast
12:16 PM 37.4 °F 30.3 °F 30.2 °F 75% 29.58 in 10.0 mi SSW 10.4 mph - N/A   Overcast
12:36 PM 37.4 °F 30.3 °F 30.2 °F 75% 29.57 in 10.0 mi SSW 10.4 mph - N/A   Overcast
12:56 PM 37.4 °F 30.3 °F 30.2 °F 75% 29.57 in 10.0 mi SSW 10.4 mph - N/A   Overcast
1:16 PM 37.4 °F 29.3 °F 30.2 °F 75% 29.57 in 10.0 mi SSW 12.7 mph - N/A   Overcast
1:36 PM 37.4 °F 30.3 °F 30.2 °F 75% 29.57 in 10.0 mi SW 10.4 mph - N/A   Overcast
1:56 PM 39.2 °F 32.0 °F 30.2 °F 70% 29.57 in 10.0 mi SW 11.5 mph - N/A   Mostly Cloudy
2:16 PM 39.2 °F 32.0 °F 28.4 °F 65% 29.56 in 10.0 mi SSW 11.5 mph - N/A   Mostly Cloudy
2:36 PM 37.4 °F 28.9 °F 30.2 °F 75% 29.56 in 10.0 mi SSW 13.8 mph - N/A   Mostly Cloudy
2:56 PM 37.4 °F 30.8 °F 30.2 °F 75% 29.56 in 10.0 mi SSW 9.2 mph 18.4 mph N/A   Mostly Cloudy
3:16 PM 37.4 °F 29.8 °F 28.4 °F 70% 29.55 in 8.0 mi SSW 11.5 mph 17.3 mph N/A   Mostly Cloudy
3:36 PM 37.4 °F 28.9 °F 30.2 °F 75% 29.56 in 10.0 mi SW 13.8 mph - N/A   Mostly Cloudy
3:56 PM 37.4 °F 29.3 °F 28.4 °F 70% 29.55 in 10.0 mi SW 12.7 mph 17.3 mph N/A   Overcast
4:16 PM 37.4 °F 30.8 °F 28.4 °F 70% 29.56 in 10.0 mi SW 9.2 mph - N/A   Overcast
4:36 PM 37.4 °F 30.3 °F 30.2 °F 75% 29.55 in 8.0 mi SSW 10.4 mph - N/A   Overcast
4:56 PM 37.4 °F 30.3 °F 28.4 °F 70% 29.56 in 10.0 mi SW 10.4 mph - N/A   Overcast
5:16 PM 37.4 °F 31.4 °F 26.6 °F 65% 29.55 in 10.0 mi SW 8.1 mph - N/A   Overcast
5:36 PM 37.4 °F 31.4 °F 26.6 °F 65% 29.55 in 10.0 mi SW 8.1 mph - N/A   Mostly Cloudy
5:56 PM 37.4 °F 32.1 °F 26.6 °F 65% 29.55 in 10.0 mi SSW 6.9 mph - N/A   Mostly Cloudy
6:16 PM 37.4 °F 30.3 °F 26.6 °F 65% 29.54 in 10.0 mi SW 10.4 mph - N/A   Overcast
6:36 PM 35.6 °F 29.2 °F 26.6 °F 70% 29.54 in 10.0 mi WSW 8.1 mph - N/A   Scattered Clouds
6:56 PM 35.6 °F 31.7 °F 28.4 °F 75% 29.54 in 10.0 mi SSW 4.6 mph - N/A   Mostly Cloudy
7:16 PM 35.6 °F 30.7 °F 28.4 °F 75% 29.53 in 10.0 mi SSW 5.8 mph - N/A   Mostly Cloudy
7:36 PM 35.6 °F 30.7 °F 26.6 °F 70% 29.53 in 10.0 mi SSW 5.8 mph - N/A   Partly Cloudy
7:56 PM 33.8 °F 29.6 °F 26.6 °F 75% 29.53 in 10.0 mi WSW 4.6 mph - N/A   Mostly Cloudy
8:16 PM 33.8 °F 30.8 °F 28.4 °F 81% 29.53 in 10.0 mi WSW 3.5 mph - N/A   Partly Cloudy
8:36 PM 33.8 °F - 28.4 °F 81% 29.54 in 10.0 mi Calm Calm - N/A   Clear
8:56 PM 33.8 °F - 28.4 °F 81% 29.53 in 10.0 mi Calm Calm - N/A   Partly Cloudy
9:16 PM 33.8 °F - 28.4 °F 81% 29.53 in 10.0 mi Calm Calm - N/A   Mostly Cloudy
9:36 PM 33.8 °F 30.8 °F 28.4 °F 81% 29.52 in 10.0 mi ESE 3.5 mph - N/A   Scattered Clouds
9:56 PM 33.8 °F 29.6 °F 28.4 °F 81% 29.52 in 10.0 mi East 4.6 mph - N/A   Partly Cloudy
10:16 PM 32.0 °F 28.7 °F 28.4 °F 87% 29.51 in 10.0 mi ESE 3.5 mph - N/A   Partly Cloudy
10:36 PM 32.0 °F 28.7 °F 26.6 °F 80% 29.50 in 10.0 mi East 3.5 mph - N/A   Clear
10:56 PM 32.0 °F 26.4 °F 26.6 °F 80% 29.50 in 10.0 mi SE 5.8 mph - N/A   Scattered Clouds
11:16 PM 32.0 °F - 28.4 °F 87% 29.50 in 10.0 mi Calm Calm - N/A   Mostly Cloudy
11:36 PM 32.0 °F 27.5 °F 28.4 °F 87% 29.50 in 10.0 mi East 4.6 mph - N/A   Partly Cloudy
11:56 PM 32.0 °F 26.4 °F 28.4 °F 87% 29.49 in 10.0 mi East 5.8 mph - N/A   Partly Cloudy